KLWBKOKV

Guest
Details From KLWB - Greenbrier Valley
To KOKV - Winchester Rgnl
Flight Number -
Tags Generated
Created
Modified
Stats Distance 132 nm / 244 km
Max Altitude 0 ft / 0 m
Waypoints 2
Social Downloads 1
Likes 0
Share VATSIM

Download

Looking for another format? Having issues loading an existing format? Contact us
Advertisement - Login to hide

Notes

Generated

Route

KLWB KOKV

ID Type Via Altitude Latitude Longitude Leg Dist Tot Dist Heading (true) Name
O KLWB APT - 0 ft / 0 m 37.85046˚ -80.40649˚ - 0 nm - -
O KOKV APT - 0 ft / 0 m 39.14875˚ -78.15146˚ 131 nm 131 nm 53° / 54° -

Altitude Profile

Advertisement - Login to hide

KLWB

Details ICAO KLWB (LWB)
Name GREENBRIER VALLEY
Region United States
Timezone America/New_York (UTC-4.0)
Stats Elevation 2,302 ft / 702 m (AMSL)
Location 37.858307° -80.399482°
Runways 1
Magnetic Variation 8.531° W

METAR

KLWB 212255Z AUTO 00000KT 10SM CLR 19/17 A3018 RMK AO2 LTG DSNT E AND NW T01920167

Decode

TAF

KLWB 212042Z 2121/2218 11010G22KT 3SM TSRA OVC035CB FM212300 10010KT 6SM -SHRA OVC040 FM220500 00000KT 5SM -SHRA OVC050 FM220700 00000KT 1SM BR OVC030 FM221430 VRB03KT P6SM BKN035

Decode

Departure Runways

ID Width Length Bearing (true) Bearing (mag) Surface Threshold Offset Overrun Length
04 151 ft / 46 m 7,007 ft / 2,136 m 35.18° 43.71° Asphalt 0 ft / 0 m 0 ft / 0 m
22 151 ft / 46 m 7,007 ft / 2,136 m 215.19° 223.72° Asphalt 0 ft / 0 m 0 ft / 0 m

KOKV

Details ICAO KOKV
Name WINCHESTER RGNL
Region United States
Timezone America/New_York (UTC-4.0)
Stats Elevation 727 ft / 222 m (AMSL)
Location 39.143527° -78.144455°
Runways 1
Magnetic Variation 10.222° W

METAR

KOKV 212255Z AUTO 12005KT 10SM BKN040 BKN048 23/18 A3013 RMK AO2

Decode

TAF

Not found

Destination Runways

ID Width Length Bearing (true) Bearing (mag) Surface Threshold Offset Overrun Length
14 98 ft / 30 m 5,500 ft / 1,677 m 133.85° 144.07° Asphalt 171 ft / 52 m 0 ft / 0 m
32 98 ft / 30 m 5,500 ft / 1,677 m 313.86° 324.08° Asphalt 177 ft / 54 m 0 ft / 0 m

Approach Navaids

Runway Type Ident Frequency Range Bearing (true) Bearing (mag) Slope Elevation
32 Localiser ITZX 109.55 MHz 18 nm / 33 km 313.87° 324.09° - 727 ft / 222 m (AMSL)
32 Glidescope ITZX 109.55 MHz 10 nm / 19 km 313.85° 324.07° 3.00° 698 ft / 213 m (AMSL)
32 DME ITZX 109.55 MHz 18 nm / 33 km - - - 727 ft / 222 m (AMSL)